• In Latvia
  • List of Countries
  • For 7 days
  • Water Temperature
  • Satellite Maps
  • Weather Map
  • Weather Widgets
  • user-avatar
    Login

    Hourly Weather Naberezhnyy

    Today, 24 May, Thursday

    Time Temperature Precipitation Wind Pressure Humidity
    00:00 +12°C° 0 mm 1 mps 747 mmHg 86%
    01:00 +11°C° 0 mm 1 mps 747 mmHg 88%
    02:00 +11°C° 0 mm 1 mps 748 mmHg 90%
    03:00 +11°C° 0 mm 1 mps 748 mmHg 88%
    04:00 +12°C° 0 mm 1 mps 748 mmHg 86%
    05:00 +12°C° 0 mm 1 mps 748 mmHg 85%
    06:00 +14°C° 0 mm 1 mps 748 mmHg 76%
    07:00 +16°C° 0 mm 1 mps 748 mmHg 68%
    08:00 +20°C° 0 mm 1 mps 748 mmHg 59%
    09:00 +20°C° 0 mm 2 mps 748 mmHg 54%
    10:00 +21°C° 0 mm 2 mps 748 mmHg 49%
    11:00 +23°C° 0 mm 2 mps 748 mmHg 44%
    12:00 +23°C° 0 mm 2 mps 748 mmHg 45%
    13:00 +23°C° 0 mm 2 mps 748 mmHg 46%
    14:00 +23°C° 0 mm 2 mps 748 mmHg 46%
    15:00 +23°C° 0 mm 2 mps 748 mmHg 48%
    16:00 +23°C° 0 mm 2 mps 748 mmHg 49%
    17:00 +23°C° 0 mm 2 mps 748 mmHg 51%
    18:00 +20°C° 0 mm 2 mps 748 mmHg 59%
    19:00 +18°C° 0 mm 2 mps 748 mmHg 68%
    20:00 +16°C° 0 mm 2 mps 748 mmHg 76%
    21:00 +15°C° 0 mm 2 mps 749 mmHg 80%
    22:00 +14°C° 0 mm 2 mps 749 mmHg 85%
    23:00 +13°C° 0 mm 2 mps 749 mmHg 89%

    Tomorrow, 25 May, Friday

    Time Temperature Precipitation Wind Pressure Humidity
    00:00 +13°C° 0 mm 2 mps 750 mmHg 90%
    01:00 +12°C° 0 mm 2 mps 750 mmHg 92%
    02:00 +12°C° 0 mm 2 mps 750 mmHg 93%
    03:00 +12°C° 0 mm 2 mps 751 mmHg 88%
    04:00 +12°C° 0 mm 2 mps 751 mmHg 82%
    05:00 +12°C° 0 mm 2 mps 751 mmHg 77%
    06:00 +13°C° 0 mm 3 mps 752 mmHg 67%
    07:00 +14°C° 0 mm 3 mps 752 mmHg 56%
    08:00 +17°C° 0 mm 3 mps 752 mmHg 46%
    09:00 +18°C° 0 mm 3 mps 752 mmHg 42%
    10:00 +19°C° 0 mm 3 mps 753 mmHg 38%
    11:00 +20°C° 0 mm 3 mps 753 mmHg 33%
    12:00 +21°C° 0 mm 3 mps 753 mmHg 33%
    13:00 +21°C° 0 mm 2 mps 753 mmHg 33%
    14:00 +23°C° 0 mm 2 mps 753 mmHg 33%
    15:00 +23°C° 0 mm 2 mps 753 mmHg 35%
    16:00 +21°C° 0 mm 2 mps 753 mmHg 37%
    17:00 +21°C° 0 mm 2 mps 753 mmHg 39%
    18:00 +19°C° 0 mm 2 mps 753 mmHg 48%
    19:00 +17°C° 0 mm 2 mps 753 mmHg 56%
    20:00 +15°C° 0 mm 2 mps 753 mmHg 65%
    21:00 +14°C° 0 mm 2 mps 754 mmHg 67%
    22:00 +13°C° 0 mm 2 mps 754 mmHg 69%
    23:00 +12°C° 0 mm 2 mps 754 mmHg 71%

    Day after tomorrow, 26 May, Saturday

    Time Temperature Precipitation Wind Pressure Humidity
    00:00 +10°C° 0 mm 2 mps 755 mmHg 71%
    01:00 +11°C° 0 mm 1 mps 755 mmHg 72%
    02:00 +10°C° 0 mm 1 mps 755 mmHg 73%
    03:00 +11°C° 0 mm 1 mps 756 mmHg 72%
    04:00 +11°C° 0 mm 1 mps 756 mmHg 72%
    05:00 +11°C° 0 mm 1 mps 756 mmHg 71%
    06:00 +14°C° 0 mm 1 mps 756 mmHg 64%
    07:00 +16°C° 0 mm 1 mps 756 mmHg 56%
    08:00 +18°C° 0 mm 2 mps 756 mmHg 48%
    09:00 +19°C° 0 mm 2 mps 756 mmHg 44%
    10:00 +20°C° 0 mm 2 mps 756 mmHg 40%
    11:00 +23°C° 0 mm 2 mps 756 mmHg 36%
    12:00 +22°C° 0 mm 3 mps 755 mmHg 36%
    13:00 +22°C° 0 mm 3 mps 755 mmHg 35%
    14:00 +24°C° 0 mm 3 mps 755 mmHg 35%
    15:00 +22°C° 0 mm 3 mps 754 mmHg 37%
    16:00 +22°C° 0 mm 3 mps 754 mmHg 40%
    17:00 +23°C° 0 mm 2 mps 754 mmHg 42%
    18:00 +20°C° 0 mm 2 mps 754 mmHg 51%
    19:00 +18°C° 0 mm 2 mps 753 mmHg 60%
    20:00 +16°C° 0 mm 2 mps 753 mmHg 69%
    21:00 +15°C° 0 mm 2 mps 753 mmHg 71%
    22:00 +14°C° 0 mm 2 mps 754 mmHg 74%
    23:00 +13°C° 0 mm 2 mps 754 mmHg 76%

    27 May, Sunday

    Time Temperature Precipitation Wind Pressure Humidity
    00:00 +12°C° 0 mm 2 mps 754 mmHg 79%
    01:00 +12°C° 0 mm 2 mps 754 mmHg 81%
    02:00 +10°C° 0 mm 2 mps 753 mmHg 84%
    03:00 +10°C° 0 mm 2 mps 753 mmHg 83%
    04:00 +12°C° 0 mm 2 mps 753 mmHg 82%
    05:00 +12°C° 0 mm 2 mps 753 mmHg 80%
    06:00 +14°C° 0 mm 2 mps 753 mmHg 73%
    07:00 +16°C° 0 mm 2 mps 753 mmHg 66%
    08:00 +18°C° 0 mm 2 mps 753 mmHg 59%
    09:00 +19°C° 0 mm 2 mps 753 mmHg 54%
    10:00 +21°C° 0 mm 2 mps 752 mmHg 48%
    11:00 +23°C° 0 mm 2 mps 752 mmHg 43%
    12:00 +24°C° 0 mm 2 mps 752 mmHg 42%
    13:00 +24°C° 0 mm 3 mps 751 mmHg 40%
    14:00 +25°C° 0 mm 3 mps 751 mmHg 39%
    15:00 +24°C° 0 mm 3 mps 751 mmHg 41%
    16:00 +24°C° 0 mm 3 mps 750 mmHg 43%
    17:00 +24°C° 0 mm 2 mps 750 mmHg 45%
    18:00 +21°C° 0 mm 2 mps 750 mmHg 55%
    19:00 +19°C° 0 mm 2 mps 750 mmHg 64%
    20:00 +18°C° 0 mm 1 mps 750 mmHg 74%
    21:00 +16°C° 0 mm 2 mps 751 mmHg 78%
    22:00 +15°C° 0 mm 2 mps 751 mmHg 81%
    23:00 +14°C° 0 mm 2 mps 751 mmHg 84%

    28 May, Monday

    Time Temperature Precipitation Wind Pressure Humidity
    00:00 +13°C° 0 mm 2 mps 752 mmHg 85%
    01:00 +12°C° 0 mm 2 mps 752 mmHg 85%
    02:00 +10°C° 0 mm 2 mps 753 mmHg 86%
    03:00 +10°C° 0 mm 2 mps 753 mmHg 79%
    04:00 +10°C° 0 mm 3 mps 754 mmHg 73%
    05:00 +10°C° 0 mm 3 mps 754 mmHg 66%
    06:00 +11°C° 0 mm 3 mps 754 mmHg 59%
    07:00 +13°C° 0 mm 3 mps 755 mmHg 51%
    08:00 +16°C° 0 mm 3 mps 755 mmHg 44%
    09:00 +17°C° 0 mm 3 mps 755 mmHg 39%
    10:00 +18°C° 0 mm 3 mps 755 mmHg 35%
    11:00 +20°C° 0 mm 2 mps 756 mmHg 30%
    12:00 +20°C° 0 mm 2 mps 755 mmHg 29%
    13:00 +21°C° 0 mm 2 mps 755 mmHg 27%
    14:00 +21°C° 0 mm 2 mps 755 mmHg 26%
    15:00 +21°C° 0 mm 2 mps 755 mmHg 27%
    16:00 +21°C° 0 mm 2 mps 755 mmHg 29%
    17:00 +21°C° 0 mm 2 mps 755 mmHg 31%
    18:00 +19°C° 0 mm 1 mps 754 mmHg 40%
    19:00 +16°C° 0 mm 1 mps 754 mmHg 48%
    20:00 +14°C° 0 mm 1 mps 754 mmHg 56%
    21:00 +13°C° 0 mm 1 mps 754 mmHg 58%
    22:00 +12°C° 0 mm 1 mps 755 mmHg 59%
    23:00 +10°C° 0 mm 0 mps 755 mmHg 61%

    29 May, Tuesday

    Time Temperature Precipitation Wind Pressure Humidity
    00:00 +9°C° 0 mm 0 mps 755 mmHg 62%
    01:00 +9°C° 0 mm 0 mps 755 mmHg 62%
    02:00 +8°C° 0 mm 0 mps 755 mmHg 63%
    03:00 +10°C° 0 mm 1 mps 755 mmHg 63%
    04:00 +11°C° 0 mm 1 mps 755 mmHg 63%
    05:00 +11°C° 0 mm 1 mps 755 mmHg 63%
    06:00 +14°C° 0 mm 1 mps 755 mmHg 56%
    07:00 +16°C° 0 mm 1 mps 755 mmHg 49%
    08:00 +19°C° 0 mm 2 mps 755 mmHg 42%
    09:00 +20°C° 0 mm 2 mps 755 mmHg 39%
    10:00 +23°C° 0 mm 2 mps 754 mmHg 35%
    11:00 +24°C° 0 mm 2 mps 754 mmHg 32%
    12:00 +25°C° 0 mm 2 mps 754 mmHg 31%
    13:00 +25°C° 0 mm 2 mps 753 mmHg 31%
    14:00 +26°C° 0 mm 2 mps 753 mmHg 30%
    15:00 +25°C° 0 mm 2 mps 752 mmHg 33%
    16:00 +25°C° 0 mm 2 mps 752 mmHg 35%
    17:00 +25°C° 0 mm 2 mps 751 mmHg 37%
    18:00 +21°C° 0 mm 2 mps 751 mmHg 46%
    19:00 +20°C° 0 mm 1 mps 751 mmHg 55%
    20:00 +18°C° 0 mm 1 mps 750 mmHg 63%
    21:00 +16°C° 0 mm 1 mps 750 mmHg 64%
    22:00 +15°C° 0 mm 1 mps 750 mmHg 65%
    23:00 +14°C° 0 mm 1 mps 750 mmHg 66%
    Show more